Location: Unspecified
(0.0000°N, 0.0000°E)
Time: 13:36:31
(UTC+02:00)

Daily predictions for brighter satellites

Satellite Brightness Start Highest point End
(mag) Time Altitude Azimuth Time Altitude Azimuth Time Altitude Azimuth
ARIANE 5 R/B 4.1 19:28:47 10° W 19:33:12 83° N 20:13:48 10° E
ARIANE 5 R/B 4.1 19:28:47 10° W 19:33:12 83° N 20:13:47 10° E
ARIANE 5 R/B 4.1 19:28:47 10° W 19:33:13 83° N 20:13:48 10° E
Cosmos 1536 Rocket 4.2 20:24:38 10° NNW 20:28:54 62° W 20:33:12 10° S
Cosmos 1812 2.8 20:27:14 10° N 20:31:05 82° W 20:34:59 10° S
Cosmos 1536 2.9 20:27:20 10° S 20:31:19 81° W 20:35:18 10° N
Cosmos 1455 Rocket 3.8 20:28:54 10° SSE 20:32:42 30° E 20:36:29 10° NNE
Cosmos 1934 Rocket 4.3 20:27:15 10° SSE 20:32:58 43° E 20:38:41 10° NNE
Cosmos 1697 Rocket 3.4 20:30:08 10° SSE 20:35:06 32° ESE 20:40:02 10° NE
ISS -0.2 20:34:02 10° WSW 20:35:16 12° SW 20:36:31 10° SSW
SL-24 R/B - RUBIN 2 4.2 20:30:59 10° SSW 20:35:50 78° WNW 20:41:24 10° NNE
Cosmos 1833 4.3 20:38:03 10° N 20:43:41 61° ENE 20:49:22 10° SSE
GPS 2-12 Rocket1 3.1 20:39:48 10° WNW 20:44:30 86° NNE 20:48:20 16° ESE
Cosmos 1025 Rocket 4.0 20:41:14 10° NNE 20:44:42 24° E 20:48:10 10° SE
GPS 2-04 Rocket1 3.7 20:42:35 10° WNW 20:46:07 39° SW 20:49:50 10° SSE
Cosmos 2219 4.2 20:42:32 10° NNE 20:47:03 25° ENE 20:50:46 14° ESE
Cosmos 1484 Rocket 2.9 20:43:38 10° S 20:47:28 77° WSW 20:51:13 10° NNW
Cosmos 1980 Rocket 2.9 20:53:13 10° SSE 20:58:00 29° ESE 21:02:48 10° NE
Spot 2 Rocket 3.9 20:57:01 10° SSE 21:01:49 41° ENE 21:06:34 10° N
Resurs 01 Rocket 2.1 20:59:13 12° SE 21:02:54 39° ENE 21:07:01 10° N
ALOS 4.2 21:06:05 13° NE 21:06:05 13° NE 21:07:03 10° NE
Meteor 2-16 Rocket 4.5 20:58:49 10° S 21:04:56 84° W 21:11:00 10° N
ATLAS 2AS CENTAUR R/B 3.0 20:58:19 10° NNW 21:05:39 70° WSW 21:12:17 10° SSE
Cosmos 1544 Rocket 4.4 21:02:24 10° SSW 21:06:37 53° W 21:10:52 10° N
Meteor 2-4 Rocket 4.1 21:01:05 10° NNE 21:06:39 43° E 21:12:12 10° SSE
Meteor 1-12 Rocket 4.1 21:10:04 10° S 21:15:41 70° E 21:21:21 10° NNE
FREGAT/IRIS 3.2 21:14:23 10° S 21:17:28 58° W 21:20:33 10° NNW
Cosmos 1975 2.9 21:13:48 10° S 21:17:48 54° E 21:21:47 10° NNE
Cosmos 1605 Rocket 4.0 21:14:47 10° S 21:21:12 88° E 21:27:34 10° N
Sylda 4400 3.7 21:24:34 10° WNW 21:26:07 35° NW 21:26:07 35° NW
Meteor 1-23 Rocket 4.1 21:25:19 10° N 21:31:00 73° E 21:35:50 15° SSE
Delta 202 4.0 21:26:42 10° W 21:32:06 66° SSW 21:34:22 40° SE
Delta 2 Rocket 4.2 21:27:49 10° WSW 21:34:40 77° SSE 21:38:00 38° ENE
ARIANE 5 DEB (SYLDA) 3.4 21:18:34 10° W 21:35:28 86° N 21:37:30 45° E
OAO 3 Copernicus 4.3 21:34:04 10° SW 21:38:56 63° SSE 21:38:56 63° SSE
Helios 1A 3.7 21:41:06 26° SSW 21:43:08 51° WSW 21:47:10 10° NNW
Sylda 5 4.2 21:45:11 10° WNW 21:50:20 63° N 21:57:54 33° ENE
Sylda 5 4.2 21:45:11 10° WNW 21:50:20 63° N 21:57:55 33° ENE
ARIANE 44LP R/B 3.7 21:33:11 10° W 21:50:56 52° SSW 21:51:37 49° S
Cosmos 968 Rocket 4.2 21:49:52 10° NNW 21:54:45 48° WSW 21:56:55 30° SSW
Meteor 2-15 Rocket 4.4 22:01:39 10° N 22:07:37 77° W 22:07:37 77° W
Cosmos 2123 Rocket 4.2 22:08:43 10° NNW 22:14:48 67° W 22:14:48 67° W
Ariane H10+ 3.9 22:33:11 10° W 22:58:00 74° WNW 22:58:00 74° WNW
